Location: Newark
(43.7333°N, 7.4000°E)
Time: 02:00:02
(UTC+00:00)

Envisat - Visible Passes

Search period start: 19 September 2020 00:00
Search period end: 29 September 2020 00:00
Orbit: 764 x 766 km, 98.1° (Epoch: 18 September)

Date Brightness Start Highest point End Pass type
(mag) Time Alt. Az. Time Alt. Az. Time Alt. Az.
20 Sep 6.0 17:52:52 10° SW 17:56:37 21° W 18:00:24 10° NW visible
21 Sep 6.1 04:21:18 10° NE 04:24:18 16° E 04:27:18 10° SE visible
22 Sep 6.6 18:20:37 10° WSW 18:22:22 12° W 18:24:08 10° WNW visible
23 Sep 5.6 04:45:43 10° NE 04:50:00 27° E 04:54:15 10° SSE visible
24 Sep 6.4 04:10:49 10° ENE 04:12:48 12° E 04:14:46 10° ESE visible
25 Sep 6.3 18:08:00 10° SW 18:10:52 15° W 18:13:45 10° NW visible
26 Sep 5.9 04:34:41 10° NE 04:38:32 21° E 04:42:22 10° SE visible
28 Sep 6.1 17:55:49 10° SW 17:59:23 19° W 18:02:57 10° NW visible
